Iron Mountain, MI

12:03 AM CDT on July 26, 2017 (GMT -0500)
Ford

Weather History for KIMT - July, 2013

Change the Weather History Date:

Tuesday, July 23, 2013

  Actual Average Record
Temperature  
Mean Temperature 60 °F -  
Max Temperature 70 °F 80 °F 96 °F (1941)
Min Temperature 48 °F 55 °F 39 °F (2004)
Degree Days  
Heating Degree Days 5    
Growing Degree Days 10 (Base 50)    
Moisture  
Dew Point 46 °F    
Average Humidity 63    
Maximum Humidity 90    
Minimum Humidity 36    
Precipitation  
Precipitation 0.00 in - - ()
Sea Level Pressure  
Sea Level Pressure 29.88 in    
Wind  
Wind Speed 10 mph (NNW)    
Max Wind Speed 23 mph    
Max Gust Speed 31 mph    
Visibility 10 miles    
Events      
Averages and records for this station are not official NWS values.
T = Trace of Precipitation, MM = Missing Value Source: NWS Daily Summary

Daily Weather History Graph

Daily Weather History Graph

Search for Another Location

Airport or City:

Trip Planner

Search our weather history database for the weather conditions in past years. The results will help you decide how hot, cold, wet, or windy it might be!

Date:

Astronomy

Jul. 23, 2013 Rise Set
Actual Time 5:25 AM CDT 8:31 PM CDT
Civil Twilight 4:49 AM CDT 9:07 PM CDT
Nautical Twilight 4:03 AM CDT 9:53 PM CDT
Astronomical Twilight 3:07 AM CDT 10:48 PM CDT
Moon 8:50 PM CDT (7/23) 6:40 AM CDT (7/23)
Length of Visible Light 16h 17m
Length of Day
15h 06m
Full, 99% of the Moon is Illuminated
Jul 23
Full
Jul 29
Last Quarter
Aug 6
New
Aug 14
First Quarter
Aug 20
Full

Hourly Weather History & Observations

Time (CDT) Temp. Dew Point Humidity Pressure Visibility Wind Dir Wind Speed Gust Speed Precip Events Conditions
12:54 AM 61.0 °F 53.1 °F 75% 29.72 in 10.0 mi NW 8.1 mph - N/A   Clear
1:54 AM 59.0 °F 53.1 °F 81% 29.72 in 10.0 mi NW 5.8 mph - N/A   Clear
2:54 AM 57.0 °F 52.0 °F 83% 29.72 in 10.0 mi WNW 4.6 mph - N/A   Clear
3:54 AM 55.9 °F 52.0 °F 87% 29.74 in 10.0 mi WNW 4.6 mph - N/A   Clear
4:54 AM 54.0 °F 51.1 °F 90% 29.75 in 10.0 mi NW 4.6 mph - N/A   Partly Cloudy
5:54 AM 55.0 °F 48.9 °F 80% 29.77 in 10.0 mi NW 8.1 mph - N/A   Clear
6:54 AM 57.0 °F 48.0 °F 72% 29.79 in 10.0 mi NNW 10.4 mph - N/A   Clear
7:11 AM 55.4 °F 46.4 °F 72% 29.80 in 10.0 mi NNW 18.4 mph 31.1 mph N/A   Mostly Cloudy
7:54 AM 57.0 °F 46.9 °F 69% 29.82 in 10.0 mi NNW 10.4 mph - N/A   Overcast
8:37 AM 59.0 °F 46.4 °F 63% 29.82 in 10.0 mi NNW 16.1 mph 23.0 mph N/A   Overcast
8:54 AM 60.1 °F 48.0 °F 64% 29.83 in 10.0 mi NNW 17.3 mph 26.5 mph N/A   Overcast
9:54 AM 61.0 °F 45.0 °F 56% 29.87 in 10.0 mi North 23.0 mph 29.9 mph N/A   Mostly Cloudy
10:54 AM 62.1 °F 46.0 °F 56% 29.91 in 10.0 mi NNW 15.0 mph 26.5 mph N/A   Overcast
11:54 AM 64.0 °F 45.0 °F 50% 29.91 in 10.0 mi NNW 19.6 mph 28.8 mph N/A   Mostly Cloudy
12:54 PM 64.0 °F 45.0 °F 50% 29.93 in 10.0 mi NNW 13.8 mph 23.0 mph N/A   Mostly Cloudy
1:54 PM 66.9 °F 45.0 °F 45% 29.94 in 10.0 mi North 17.3 mph 23.0 mph N/A   Mostly Cloudy
2:54 PM 70.0 °F 43.0 °F 38% 29.94 in 10.0 mi NW 18.4 mph 25.3 mph N/A   Scattered Clouds
3:54 PM 69.1 °F 42.1 °F 38% 29.95 in 10.0 mi North 18.4 mph 23.0 mph N/A   Clear
4:54 PM 69.1 °F 41.0 °F 36% 29.95 in 10.0 mi North 15.0 mph 25.3 mph N/A   Clear
5:54 PM 68.0 °F 41.0 °F 37% 29.96 in 10.0 mi NW 13.8 mph - N/A   Clear
6:54 PM 66.0 °F 41.0 °F 40% 29.97 in 10.0 mi North 12.7 mph - N/A   Clear
7:54 PM 64.0 °F 44.1 °F 48% 29.98 in 10.0 mi North 6.9 mph - N/A   Clear
8:54 PM 57.9 °F 45.0 °F 62% 29.99 in 10.0 mi Calm Calm - N/A   Clear
9:54 PM 53.1 °F 45.0 °F 74% 30.01 in 10.0 mi Calm Calm - N/A   Clear
10:54 PM 50.0 °F 45.0 °F 83% 30.02 in 10.0 mi Calm Calm - N/A   Clear
11:54 PM 48.0 °F 45.0 °F 89% 30.02 in 10.0 mi Calm Calm - N/A   Clear